LUCH-5A

Last updated on Tue Oct 15 2024 00:02:39 GMT+0000 (Coordinated Universal Time)

1 37951U 11074B 24288.57896750 -.00000044 00000+0 00000+0 0 9996 2 37951 7.1880 83.0686 0004576 116.7362 199.1865 1.00271568 46920
UTC large
Height (km)
Speed (km/s)
/
Latitude / Longitude
Inclination (degrees)
Orbital Period (minutes)
Azimuth
Elevation
Range (km)
Doppler Factor

Next 0 passes for location: London (51.5072 / 0.1276)

Sorry there are no passes over London.